{"data":{"norad_id":44479,"intl_designator":"2019-050A","name":"AMOS-17","alt_names":[],"object_type":"PAYLOAD","status":"ACTIVE","operator":null,"country":"ISRA","launch_date":"2019-08-06","launch_site_code":"AFETR","launch_vehicle":null,"mission":null,"orbit_class":"UNKNOWN","rcs_meters":null,"size_class":null,"mass_kg":null,"dimensions":null,"purposes":["comms"],"wikipedia_slug":null,"has_3d_model":false,"image_url":null,"decayed_at":null,"tle_current":{"epoch":"2026-09-19T13:37:48.629280Z","epoch_age_seconds":106326,"freshness":"FRESH","line1":"1 44479U 19050A   26262.56792395  .00000105  00000+0  00000+0 0  9991","line2":"2 44479   0.0073 289.1540 0002351 247.4301  43.3555  1.00272218 26131","mean_motion":1.00272218,"eccentricity":0.0002351,"inclination_deg":0.0073,"raan_deg":289.154,"arg_perigee_deg":247.4301,"mean_anomaly_deg":43.3555,"bstar":0,"rev_number":2613,"period_min":1436.0907026112,"perigee_km":35776.560676063,"apogee_km":35796.386475956,"semimajor_km":42164.610576009,"source":"CELESTRAK","updated_at":"2026-09-20T09:00:35.269116Z"}}}